HAIYANG 4A

Satellite information

Favourite Embed

Satellite Type and Status

PAYLOADIN ORBIT

Key statistics

Satellite HAIYANG 4A at a glance.

Uptime

237

Days in orbit

Revolutions

≈ 14.7

Per day

Orbit

SSO

Sun Synchronous Orbit

Inclination

98.0

Latest

Satellite identification and parameters

Extended collection of information and parameters for HAIYANG 4A.

Object identification

Identified? True

Debris? False

Object name: HAIYANG 4A

International designator: 2024-208A

Object number (NORAD): 61936

Object ID (CCSDS): 61936

Country: PEOPLES REPUBLIC OF CHINA (PRC)

Current information (Y/N): Y

RCS size: LARGE

Orbital parameters

Period: 97.74 minutes

Inclination: 98.0044 deg

SMA: 7028.691 km

Apoapsis: 651.681 km

Periapsis: 649.431 km

RAAN: 196.351 deg

Eccentricy: 0.0001601

Argument of periapsis: 100.8479 deg

Mean anomaly: 259.2909 deg

Mean motion: 14.73299615 rev/day

Mean motion (dot): 0.00000389 rev/day2

B* drag term: 0.000067869 1/REarth

Two-line elements (TLE)

Creation date: July 8, 2025, 2:27 a.m.

Reference frame: TEME

Reference center: EARTH

Epoch: July 7, 2025, 10:14 p.m. UTC

TLE line 0: 0 HAIYANG 4A

TLE line 1: 1 61936U 24208A 25188.92707863 .00000389 00000-0 67869-4 0 9997

TLE line 2: 2 61936 98.0044 196.3510 0001601 100.8479 259.2909 14.73299615 34756

Live tracking on map

Real-time ground track for satellite HAIYANG 4A.

In-orbit conjunctions

There are no conjunctions computed for HAIYANG 4A, at the moment. Check back to stay up to date, as we update our databases every day.

Go to all conjunctions

Associated space launch

Next generation Chinese ocean salinity measurements satellite to study ocean climatic changes and its effects on ecology and biological cycles.

HAIYANG 4A was lifted into orbit during the mission ‘Long March 4B | Haiyang 4-01’, on board a Long March 4B space rocket.

The launch took place on Nov. 13, 2024, 10:42 p.m. from Launch Complex 9.

For more information about the launch, click the button.

Launch to space Long March 4B | Haiyang 4-01
Long March 4B | Haiyang 4-01

Agency: N/A

Status: Launch Successful

Launch date: Nov. 13, 2024, 10:42 p.m. UTC

Rocket: Long March 4B

Launch pad: Launch Complex 9

Location: Taiyuan Satellite Launch Center, People's Republic of China

...

Latest news about this satellite

News about space launch
Launch Roundup: Falcon 9 launches customer payloads, China fly resupply mission to Tiangong

While SpaceX is preparing to fly Starship on its sixth integrated test flight this week, the company flew one satellite and plans to fly two more to geostationary transfer orbit this week. Koreasat 6A has flown while Optus-X and GSAT-20 are also scheduled...

News about space launch
China launches first Haiyang-4 oceanography satellite

HELSINKI — China conducted its 55th orbital launch of 2024, sending the Haiyang-4 (01) oceanography satellite into a near polar orbit. A Long March 4B rocket lifted off at 5:42 […]


Newsletter sign-up

Weekly statistics, charts and insights to help you stay on top of the space industry.